Regional Weather Roundup
Issued by NWS Sioux Falls, SD

Home | Current Version | Previous Version | Text Only | Print | Product List | Glossary Off
Versions: 1 2 3 4 5 6 7 8 9 10 11 12 13 14 15 16 17 18 19 20 21 22 23 24 25 26 27 28 29 30 31 32 33 34 35 36 37 38 39 40 41 42 43 44 45 46 47 48 49 50

000
ASUS43 KFSD 261510
RWRFSD

WEATHER ROUNDUP FOR SE SOUTH DAKOTA/SW MINNESOTA/NW IOWA
NATIONAL WEATHER SERVICE SIOUX FALLS SD
1000 AM CDT SUN MAR 26 2017

NOTE: "FAIR" INDICATES FEW OR NO CLOUDS BELOW 12,000 FEET WITH NO
SIGNIFICANT WEATHER AND OR OBSTRUCTIONS TO VISIBILITY.


SDZ038>040-050-052>070-261600-
SOUTHEAST SOUTH DAKOTA

CITY           SKY/WX    TMP DP  RH WIND       PRES   REMARKS
BROOKINGS      CLOUDY    37  36  96 NE5       29.93S
CHAMBERLAIN    CLOUDY    41  40  93 CALM      29.94R
HURON          CLOUDY    39  37  92 E7        29.94S
MADISON        CLOUDY    36  36 100 NE8       29.92S
MITCHELL       CLOUDY    41  39  93 CALM      29.95R
SIOUX FALLS    CLOUDY    40  38  93 NE8       29.93S
WINNER         CLOUDY    41  39  93 E6        29.91R FOG
YANKTON        CLOUDY    39  36  87 NE5       29.93S
$$

MNZ071-072-080-081-089-090-097-098-261600-
SOUTHWEST MINNESOTA

CITY           SKY/WX    TMP DP  RH WIND       PRES   REMARKS
FAIRMONT       CLOUDY    37  36  96 N10       29.92S FOG
JACKSON        CLOUDY    36  36 100 NE9       29.92R FOG
LUVERNE        CLOUDY    36  34  93 NE5       29.93R
MARSHALL       CLOUDY    37  36  96 NE9       29.95S FOG
MONTEVIDEO     CLOUDY    36  36 100 E6        29.98S FOG
PIPESTONE      CLOUDY    37  34  87 E7        29.92R FOG
REDWOOD FALLS  CLOUDY    37  34  89 NE6       29.94F
TRACY          CLOUDY    37  37 100 NE9       29.94S FOG
WINDOM         CLOUDY    37  37 100 NE9       29.92S
WORTHINGTON    CLOUDY    36  35  96 NE12      29.92S
$$

IAZ001>003-012>014-020>022-031-032-NEZ013-014-SDZ071-261600-
NORTHWEST IOWA

CITY           SKY/WX    TMP DP  RH WIND       PRES   REMARKS
CHEROKEE       CLOUDY    38  38 100 N6        29.92R
ESTHERVILLE    CLOUDY    36  36 100 N12       29.90F FOG
LE MARS        CLOUDY    41  37  87 NE8       29.93S
ORANGE CITY    CLOUDY    37  37 100 NE5       29.92R
SHELDON        MIX PCPN  37  37 100 NE9       29.91R
SIOUX CITY     CLOUDY    41  38  89 N6        29.93R
SPENCER        CLOUDY    39  37  92 NE10      29.91S
STORM LAKE     FOG       37  37 100 N9        29.90R VSB 3/4
$$

ABBREVIATIONS USED IN REMARKS
   TC - TEMPERATURE IN CELSIUS
  WCI - WIND CHILL INDEX
   HX - HEAT INDEX
  VSB - VISIBILITY





USA.gov is the U.S. government's official web portal to all federal, state and local government web resources and services.